Zurück zum Katalog

TITAN 3C TRANSTAGE DEB

AktivMEO
NORAD 38703·DEBRIS·🇺🇸 United States

Gestartet Sep 26, 1968 von Cape Canaveral Space Force Station

Loading…

Nächste Überflüge (nächste 24 Stunden)

TLE

AktuellSource: Space-Track

Epoche: Sep 13, 2026, 09:08 UTC

1 38703U 68081AD  26256.38106829 -.00000153  00000-0  00000-0 0  9992
2 38703   3.0829  77.4491 0239136  75.1561 287.9362  1.05420839 48399

Verfolge TITAN 3C TRANSTAGE DEB in Echtzeit mit AllMySat

Download on the App Store